Weather History for Adrian, MI

Change the Weather History Date:

Sunday, September 15, 2013

  Actual Average Record
Temperature  
Mean Temperature 54 °F -  
Max Temperature 66 °F 73 °F 90 °F (1991)
Min Temperature 43 °F 49 °F 35 °F (1985)
Degree Days  
Heating Degree Days 10    
Growing Degree Days 4 (Base 50)    
Moisture  
Dew Point 48 °F    
Average Humidity 81    
Maximum Humidity 96    
Minimum Humidity 54    
Precipitation  
Precipitation 0.05 in - - ()
Sea Level Pressure  
Sea Level Pressure 30.13 in    
Wind  
Wind Speed 2 mph (WNW)    
Max Wind Speed 15 mph    
Max Gust Speed 23 mph    
Visibility 9 miles    
Events Rain    
Averages and records for this station are not official NWS values.
T = Trace of Precipitation, MM = Missing Value Source: NWS Daily Summary

Daily Weather History Graph

Daily Weather History Graph

Search for Another Location

Airport:

Trip Planner

Search our weather history database for the weather conditions in past years. The results will help you decide how hot, cold, wet, or windy it might be!

Date:

Astronomy

Sep. 15, 2013 Rise Set
Actual Time 7:16 AM EDT 7:45 PM EDT
Civil Twilight 6:48 AM EDT 8:13 PM EDT
Nautical Twilight 6:15 AM EDT 8:46 PM EDT
Astronomical Twilight 5:41 AM EDT 9:19 PM EDT
Moon 5:14 PM EDT (9/15) 2:50 AM EDT (9/15)
Length of Visible Light 13h 24m
Length of Day
12h 28m
Waxing Gibbous, 82% of the Moon is Illuminated
Sep 15
Waxing Gibbous
Sep 19
Full
Sep 26
Last Quarter
Oct 4
New
Oct 11
First Quarter

Hourly Weather History & Observations

Time (EDT) Temp. Dew Point Humidity Pressure Visibility Wind Dir Wind Speed Gust Speed Precip Events Conditions
12:53 AM 45.0 °F 42.1 °F 90% 30.12 in 10.0 mi Calm Calm - N/A   Clear
1:53 AM 45.0 °F 42.1 °F 90% 30.12 in 10.0 mi Calm Calm - N/A   Clear
2:53 AM 43.0 °F 41.0 °F 93% 30.12 in 10.0 mi Calm Calm - N/A   Clear
3:53 AM 43.0 °F 41.0 °F 93% 30.12 in 10.0 mi Calm Calm - N/A   Clear
4:53 AM 43.0 °F 41.0 °F 93% 30.12 in 10.0 mi Calm Calm - N/A   Clear
5:53 AM 45.0 °F 43.0 °F 93% 30.13 in 10.0 mi Calm Calm - N/A   Clear
6:53 AM 45.0 °F 42.1 °F 90% 30.14 in 10.0 mi Calm Calm - N/A   Clear
7:53 AM 46.9 °F 43.0 °F 86% 30.16 in 10.0 mi WSW 3.5 mph - N/A   Clear
8:53 AM 50.0 °F 45.0 °F 83% 30.15 in 10.0 mi Calm Calm - N/A   Clear
9:53 AM 53.1 °F 46.0 °F 77% 30.15 in 10.0 mi SW 5.8 mph - N/A   Clear
10:53 AM 59.0 °F 46.0 °F 62% 30.14 in 10.0 mi WSW 8.1 mph - N/A   Clear
11:53 AM 63.0 °F 46.9 °F 56% 30.12 in 10.0 mi WSW 10.4 mph - N/A   Clear
12:53 PM 64.0 °F 48.0 °F 56% 30.11 in 10.0 mi WSW 6.9 mph - N/A   Mostly Cloudy
1:53 PM 64.9 °F 48.0 °F 54% 30.11 in 10.0 mi WNW 3.5 mph - N/A   Overcast
2:53 PM 64.9 °F 48.9 °F 56% 30.09 in 10.0 mi Calm Calm - N/A   Mostly Cloudy
3:53 PM 66.0 °F 48.9 °F 54% 30.08 in 10.0 mi Calm Calm - N/A   Overcast
4:53 PM 63.0 °F 53.1 °F 70% 30.07 in 10.0 mi NNE 5.8 mph - 0.00 in Rain Light Rain
5:53 PM 59.0 °F 53.1 °F 81% 30.11 in 10.0 mi NNE 15.0 mph 23.0 mph 0.00 in Rain Light Rain
6:53 PM 55.9 °F 53.1 °F 90% 30.15 in 3.0 mi NNE 9.2 mph - 0.04 in Rain Rain
7:53 PM 55.0 °F 54.0 °F 96% 30.13 in 10.0 mi NE 3.5 mph - 0.01 in Rain Light Rain
8:53 PM 55.0 °F 54.0 °F 96% 30.15 in 6.0 mi Calm Calm - 0.00 in Rain Light Rain
9:53 PM 55.0 °F 54.0 °F 96% 30.16 in 8.0 mi Calm Calm - 0.00 in Rain Light Rain
10:53 PM 55.9 °F 54.0 °F 93% 30.15 in 10.0 mi Calm Calm - 0.00 in   Overcast
11:53 PM 55.9 °F 54.0 °F 93% 30.15 in 7.0 mi Calm Calm - N/A   Overcast